Time,TemperatureF,DewpointF,PressureIn,WindDirection,WindDirectionDegrees,WindSpeedMPH,WindSpeedGustMPH,Humidity,HourlyPrecipIn,Conditions,Clouds,dailyrainin,SoftwareType,DateUTC
2013-02-16 00:03:00,15.8,14.4,29.98,WNW,292,0.0,-999.0,94,-99.99,,,0.00,Acu-Link.com,2013-02-16 05:03:00,
2013-02-16 00:18:00,15.4,14.3,29.97,SSW,202,0.0,-999.0,95,-99.99,,,0.00,Acu-Link.com,2013-02-16 05:18:00,
2013-02-16 00:33:00,15.1,14.1,29.97,NW,315,0.0,-999.0,96,-99.99,,,0.00,Acu-Link.com,2013-02-16 05:33:00,
2013-02-16 00:48:00,14.4,13.9,29.97,WNW,292,0.0,-999.0,98,-99.99,,,0.00,Acu-Link.com,2013-02-16 05:48:00,
2013-02-16 01:04:00,14.0,13.5,29.97,NW,315,0.0,-999.0,98,-99.99,,,0.00,Acu-Link.com,2013-02-16 06:04:00,
2013-02-16 01:19:00,14.0,13.5,29.97,WNW,292,0.0,-999.0,98,-99.99,,,0.00,Acu-Link.com,2013-02-16 06:19:00,
2013-02-16 01:34:00,14.4,13.9,29.97,WNW,292,0.0,-999.0,98,-99.99,,,0.00,Acu-Link.com,2013-02-16 06:34:00,
2013-02-16 01:49:00,14.9,14.4,29.97,NW,315,0.0,-999.0,98,-99.99,,,0.00,Acu-Link.com,2013-02-16 06:49:00,
2013-02-16 02:05:00,14.9,14.4,29.96,WNW,292,0.0,-999.0,98,-99.99,,,0.00,Acu-Link.com,2013-02-16 07:05:00,
2013-02-16 02:20:00,14.4,13.9,29.95,West,270,0.0,-999.0,98,-99.99,,,0.00,Acu-Link.com,2013-02-16 07:20:00,
2013-02-16 02:35:00,14.4,13.9,29.95,WNW,292,0.0,-999.0,98,-99.99,,,0.00,Acu-Link.com,2013-02-16 07:35:00,
2013-02-16 02:50:00,14.4,13.9,29.94,West,270,0.0,-999.0,98,-99.99,,,0.00,Acu-Link.com,2013-02-16 07:50:00,
2013-02-16 03:05:00,13.5,13.0,29.95,West,270,0.0,-999.0,98,-99.99,,,0.00,Acu-Link.com,2013-02-16 08:05:00,
2013-02-16 03:20:00,13.5,13.0,29.94,NW,315,0.0,-999.0,98,-99.99,,,0.00,Acu-Link.com,2013-02-16 08:20:00,
2013-02-16 03:36:00,13.1,12.6,29.94,NW,315,0.0,-999.0,98,-99.99,,,0.00,Acu-Link.com,2013-02-16 08:36:00,
2013-02-16 03:51:00,12.9,12.5,29.94,NW,315,0.0,-999.0,98,-99.99,,,0.00,Acu-Link.com,2013-02-16 08:51:00,
2013-02-16 04:18:00,12.6,12.1,29.94,WNW,292,0.0,-999.0,98,-99.99,,,0.00,Acu-Link.com,2013-02-16 09:18:00,
2013-02-16 04:33:00,12.2,11.7,29.94,ESE,112,0.0,-999.0,98,-99.99,,,0.00,Acu-Link.com,2013-02-16 09:33:00,
2013-02-16 04:49:00,13.5,13.0,29.93,West,270,0.0,-999.0,98,-99.99,,,0.00,Acu-Link.com,2013-02-16 09:49:00,
2013-02-16 05:04:00,15.1,14.6,29.93,SSE,157,0.0,-999.0,98,-99.99,,,0.00,Acu-Link.com,2013-02-16 10:04:00,
2013-02-16 05:19:00,15.4,15.0,29.93,NW,315,0.0,-999.0,98,-99.99,,,0.00,Acu-Link.com,2013-02-16 10:19:00,
2013-02-16 05:34:00,16.0,15.5,29.93,WNW,292,0.0,-999.0,98,-99.99,,,0.00,Acu-Link.com,2013-02-16 10:34:00,
2013-02-16 05:49:00,16.2,15.7,29.93,North,0,0.0,-999.0,98,-99.99,,,0.00,Acu-Link.com,2013-02-16 10:49:00,
2013-02-16 06:05:00,16.3,15.9,29.93,WNW,292,0.0,-999.0,98,-99.99,,,0.00,Acu-Link.com,2013-02-16 11:05:00,
2013-02-16 06:20:00,17.1,16.6,29.92,NW,315,0.0,-999.0,98,-99.99,,,0.00,Acu-Link.com,2013-02-16 11:20:00,
2013-02-16 06:35:00,17.6,17.1,29.92,NNW,337,0.0,-999.0,98,-99.99,,,0.00,Acu-Link.com,2013-02-16 11:35:00,
2013-02-16 06:50:00,18.5,18.0,29.92,WNW,292,0.0,-999.0,98,-99.99,,,0.00,Acu-Link.com,2013-02-16 11:50:00,
2013-02-16 07:06:00,19.0,18.6,29.91,WNW,292,0.0,-999.0,98,-99.99,,,0.00,Acu-Link.com,2013-02-16 12:06:00,
2013-02-16 07:21:00,19.2,18.7,29.91,West,270,0.0,-999.0,98,-99.99,,,0.00,Acu-Link.com,2013-02-16 12:21:00,
2013-02-16 07:36:00,19.2,18.7,29.91,NE,45,0.0,-999.0,98,-99.99,,,0.00,Acu-Link.com,2013-02-16 12:36:00,
2013-02-16 07:51:00,19.4,18.9,29.91,NNW,337,0.0,-999.0,98,-99.99,,,0.00,Acu-Link.com,2013-02-16 12:51:00,
2013-02-16 08:06:00,19.8,19.3,29.91,SSE,157,0.0,-999.0,98,-99.99,,,0.00,Acu-Link.com,2013-02-16 13:06:00,
2013-02-16 08:22:00,20.1,19.6,29.91,South,180,0.0,-999.0,98,-99.99,,,0.00,Acu-Link.com,2013-02-16 13:22:00,
2013-02-16 08:37:00,20.5,20.0,29.91,South,180,0.0,-999.0,98,-99.99,,,0.00,Acu-Link.com,2013-02-16 13:37:00,
2013-02-16 08:52:00,20.8,20.4,29.91,South,180,0.0,-999.0,98,-99.99,,,0.00,Acu-Link.com,2013-02-16 13:52:00,
2013-02-16 09:07:00,22.1,21.6,29.90,SSW,202,0.0,-999.0,98,-99.99,,,0.00,Acu-Link.com,2013-02-16 14:07:00,
2013-02-16 09:22:00,23.4,21.9,29.90,SSW,202,1.6,-999.0,94,-99.99,,,0.00,Acu-Link.com,2013-02-16 14:22:00,
2013-02-16 09:38:00,24.4,22.2,29.90,SE,135,1.1,-999.0,91,-99.99,,,0.00,Acu-Link.com,2013-02-16 14:38:00,
2013-02-16 09:53:00,25.5,21.7,29.90,SSE,157,0.0,-999.0,85,-99.99,,,0.00,Acu-Link.com,2013-02-16 14:53:00,
2013-02-16 10:08:00,26.2,22.9,29.90,West,270,0.0,-999.0,87,-99.99,,,0.00,Acu-Link.com,2013-02-16 15:08:00,
2013-02-16 10:23:00,27.0,24.4,29.89,West,270,0.0,-999.0,90,-99.99,,,0.00,Acu-Link.com,2013-02-16 15:23:00,
2013-02-16 10:38:00,25.5,22.2,29.89,SSW,202,1.6,-999.0,87,-99.99,,,0.00,Acu-Link.com,2013-02-16 15:38:00,
2013-02-16 10:54:00,28.2,23.2,29.90,SSE,157,2.7,-999.0,81,-99.99,,,0.00,Acu-Link.com,2013-02-16 15:54:00,
2013-02-16 11:09:00,32.2,24.5,29.89,ESE,112,0.0,-999.0,73,-99.99,,,0.00,Acu-Link.com,2013-02-16 16:09:00,
2013-02-16 11:24:00,30.0,22.4,29.89,SE,135,3.1,-999.0,73,-99.99,,,0.00,Acu-Link.com,2013-02-16 16:24:00,
2013-02-16 11:39:00,28.8,21.9,29.88,NNE,22,2.2,-999.0,75,-99.99,,,0.00,Acu-Link.com,2013-02-16 16:39:00,
2013-02-16 11:55:00,27.5,20.6,29.88,SW,225,1.1,-999.0,75,-99.99,,,0.00,Acu-Link.com,2013-02-16 16:55:00,
2013-02-16 12:10:00,25.9,21.2,29.88,NNW,337,3.1,-999.0,82,-99.99,,,0.00,Acu-Link.com,2013-02-16 17:10:00,
2013-02-16 12:25:00,27.1,21.8,29.88,SW,225,4.3,-999.0,80,-99.99,,,0.00,Acu-Link.com,2013-02-16 17:25:00,
2013-02-16 12:40:00,27.9,22.8,29.87,WSW,247,2.2,-999.0,81,-99.99,,,0.00,Acu-Link.com,2013-02-16 17:40:00,
2013-02-16 12:55:00,25.9,21.7,29.87,West,270,1.1,-999.0,84,-99.99,,,0.00,Acu-Link.com,2013-02-16 17:55:00,
2013-02-16 13:11:00,26.8,22.3,29.86,West,270,3.1,-999.0,83,-99.99,,,0.00,Acu-Link.com,2013-02-16 18:11:00,
2013-02-16 13:26:00,27.0,22.5,29.86,NW,315,5.1,-999.0,83,-99.99,,,0.00,Acu-Link.com,2013-02-16 18:26:00,
2013-02-16 13:41:00,29.3,21.4,29.85,WNW,292,7.8,-999.0,72,-99.99,,,0.00,Acu-Link.com,2013-02-16 18:41:00,
2013-02-16 13:56:00,27.9,18.3,29.85,WNW,292,4.3,-999.0,67,-99.99,,,0.00,Acu-Link.com,2013-02-16 18:56:00,
2013-02-16 14:11:00,25.3,16.6,29.85,SW,225,8.9,-999.0,69,-99.99,,,0.00,Acu-Link.com,2013-02-16 19:11:00,
2013-02-16 14:27:00,27.7,19.2,29.85,NNW,337,5.1,-999.0,70,-99.99,,,0.00,Acu-Link.com,2013-02-16 19:27:00,
2013-02-16 14:42:00,27.9,16.9,29.85,WNW,292,11.0,-999.0,63,-99.99,,,0.00,Acu-Link.com,2013-02-16 19:42:00,
2013-02-16 14:57:00,25.3,16.3,29.85,West,270,3.8,-999.0,68,-99.99,,,0.00,Acu-Link.com,2013-02-16 19:57:00,
2013-02-16 15:12:00,25.7,17.0,29.86,WSW,247,1.1,-999.0,69,-99.99,,,0.00,Acu-Link.com,2013-02-16 20:12:00,
2013-02-16 15:27:00,26.6,16.4,29.85,SW,225,3.1,-999.0,65,-99.99,,,0.00,Acu-Link.com,2013-02-16 20:27:00,
2013-02-16 15:43:00,25.2,14.4,29.86,NNW,337,5.8,-999.0,63,-99.99,,,0.00,Acu-Link.com,2013-02-16 20:43:00,
2013-02-16 15:58:00,24.8,14.4,29.86,SSW,202,2.2,-999.0,64,-99.99,,,0.00,Acu-Link.com,2013-02-16 20:58:00,
2013-02-16 16:13:00,24.4,14.0,29.87,ENE,67,6.3,-999.0,64,-99.99,,,0.00,Acu-Link.com,2013-02-16 21:13:00,
2013-02-16 16:28:00,23.9,15.2,29.87,SW,225,5.1,-999.0,69,-99.99,,,0.00,Acu-Link.com,2013-02-16 21:28:00,
2013-02-16 16:44:00,23.9,14.2,29.87,West,270,2.7,-999.0,66,-99.99,,,0.00,Acu-Link.com,2013-02-16 21:44:00,
2013-02-16 16:59:00,22.8,12.8,29.88,SSW,202,1.6,-999.0,65,-99.99,,,0.00,Acu-Link.com,2013-02-16 21:59:00,
2013-02-16 17:14:00,22.6,15.9,29.88,West,270,2.2,-999.0,75,-99.99,,,0.00,Acu-Link.com,2013-02-16 22:14:00,
2013-02-16 17:29:00,21.4,17.6,29.89,West,270,4.3,-999.0,85,-99.99,,,0.00,Acu-Link.com,2013-02-16 22:29:00,
2013-02-16 17:44:00,20.7,17.1,29.88,SW,225,2.2,-999.0,86,-99.99,,,0.00,Acu-Link.com,2013-02-16 22:44:00,
2013-02-16 18:00:00,19.8,16.3,29.89,WNW,292,0.0,-999.0,86,-99.99,,,0.00,Acu-Link.com,2013-02-16 23:00:00,
2013-02-16 18:15:00,19.2,16.8,29.90,West,270,0.0,-999.0,90,-99.99,,,0.00,Acu-Link.com,2013-02-16 23:15:00,
2013-02-16 18:30:00,18.7,16.0,29.90,WNW,292,0.0,-999.0,89,-99.99,,,0.00,Acu-Link.com,2013-02-16 23:30:00,
2013-02-16 18:45:00,17.4,15.0,29.91,NNW,337,0.0,-999.0,90,-99.99,,,0.00,Acu-Link.com,2013-02-16 23:45:00,
2013-02-16 19:00:00,16.9,14.5,29.92,West,270,0.0,-999.0,90,-99.99,,,0.00,Acu-Link.com,2013-02-17 00:00:00,
2013-02-16 19:16:00,16.5,13.6,29.93,NW,315,0.0,-999.0,88,-99.99,,,0.00,Acu-Link.com,2013-02-17 00:16:00,
2013-02-16 19:31:00,16.5,14.1,29.93,NW,315,0.0,-999.0,90,-99.99,,,0.00,Acu-Link.com,2013-02-17 00:31:00,
2013-02-16 19:46:00,16.7,14.3,29.93,WNW,292,1.1,-999.0,90,-99.99,,,0.00,Acu-Link.com,2013-02-17 00:46:00,
2013-02-16 20:02:00,16.9,14.7,29.93,NW,315,0.0,-999.0,91,-99.99,,,0.00,Acu-Link.com,2013-02-17 01:02:00,
2013-02-16 20:17:00,16.5,14.4,29.93,NW,315,0.0,-999.0,91,-99.99,,,0.00,Acu-Link.com,2013-02-17 01:17:00,
2013-02-16 20:32:00,17.1,16.1,29.93,WSW,247,0.0,-999.0,96,-99.99,,,0.00,Acu-Link.com,2013-02-17 01:32:00,
2013-02-16 20:47:00,16.7,16.2,29.94,West,270,2.7,-999.0,98,-99.99,,,0.00,Acu-Link.com,2013-02-17 01:47:00,
2013-02-16 21:02:00,15.8,15.3,29.93,West,270,0.0,-999.0,98,-99.99,,,0.00,Acu-Link.com,2013-02-17 02:02:00,
2013-02-16 21:18:00,15.4,15.0,29.94,West,270,0.0,-999.0,98,-99.99,,,0.00,Acu-Link.com,2013-02-17 02:18:00,
2013-02-16 21:33:00,14.5,14.1,29.94,WSW,247,1.1,-999.0,98,-99.99,,,0.00,Acu-Link.com,2013-02-17 02:33:00,
2013-02-16 21:48:00,13.6,13.2,29.94,NNW,337,0.0,-999.0,98,-99.99,,,0.00,Acu-Link.com,2013-02-17 02:48:00,
2013-02-16 22:03:00,13.1,12.6,29.93,SW,225,0.0,-999.0,98,-99.99,,,0.00,Acu-Link.com,2013-02-17 03:03:00,
2013-02-16 22:18:00,13.1,12.6,29.94,WNW,292,0.0,-999.0,98,-99.99,,,0.00,Acu-Link.com,2013-02-17 03:18:00,
2013-02-16 22:33:00,13.8,13.4,29.94,West,270,2.2,-999.0,98,-99.99,,,0.00,Acu-Link.com,2013-02-17 03:33:00,
2013-02-16 22:49:00,14.0,13.5,29.94,WSW,247,0.0,-999.0,98,-99.99,,,0.00,Acu-Link.com,2013-02-17 03:49:00,
2013-02-16 23:04:00,14.4,13.9,29.94,NNW,337,0.0,-999.0,98,-99.99,,,0.00,Acu-Link.com,2013-02-17 04:04:00,
2013-02-16 23:19:00,14.5,14.1,29.94,WSW,247,4.7,-999.0,98,-99.99,,,0.00,Acu-Link.com,2013-02-17 04:19:00,
2013-02-16 23:34:00,14.2,13.7,29.93,West,270,1.6,-999.0,98,-99.99,,,0.00,Acu-Link.com,2013-02-17 04:34:00,
2013-02-16 23:50:00,13.8,13.4,29.93,North,0,0.0,-999.0,98,-99.99,,,0.00,Acu-Link.com,2013-02-17 04:50:00,